This is the latest recevied weather packets stored in our database for station/object WX2NJ. If no packets are shown the sender has not sent any weather packets the latest 10 day(s).
| Time | Temp. | Humidity | Pressure | Rain* | Wind** | Luminosity | Snow |
|---|---|---|---|---|---|---|---|
| 1777989558 | 25° C | 44% | 1015.3 hPa | 0 mm | - | 170 W/m² | - |
| 1777989255 | 25° C | 45% | 1015.5 hPa | 0 mm | - | 170 W/m² | - |
| 1777988951 | 24.44° C | 45% | 1015.3 hPa | 0 mm | - | 219 W/m² | - |
| 1777988648 | 24.44° C | 46% | 1015.4 hPa | 0 mm | - | 177 W/m² | - |
| 1777988344 | 23.89° C | 48% | 1015.4 hPa | 0 mm | - | 158 W/m² | - |
| 1777988042 | 23.89° C | 50% | 1015.6 hPa | 0 mm | - | 157 W/m² | - |
| 1777987737 | 23.89° C | 48% | 1015.4 hPa | 0 mm | - | 155 W/m² | - |
| 1777987434 | 23.89° C | 50% | 1015.4 hPa | 0 mm | - | 153 W/m² | - |
| 1777987132 | 23.33° C | 50% | 1015.5 hPa | 0 mm | - | 153 W/m² | - |
| 1777986829 | 22.78° C | 51% | 1015.5 hPa | 0 mm | - | 150 W/m² | - |
| 1777986527 | 23.33° C | 50% | 1015.4 hPa | 0 mm | - | 152 W/m² | - |
| 1777986224 | 22.78° C | 51% | 1015.5 hPa | 0 mm | - | 213 W/m² | - |
| 1777985921 | 22.78° C | 52% | 1015.4 hPa | 0 mm | - | 338 W/m² | - |
| 1777985619 | 22.78° C | 54% | 1015.3 hPa | 0 mm | - | 382 W/m² | - |
| 1777985315 | 22.22° C | 57% | 1015.4 hPa | 0 mm | - | 225 W/m² | - |
| 1777985012 | 21.67° C | 56% | 1015.5 hPa | 0 mm | - | 202 W/m² | - |
| 1777984708 | 21.67° C | 58% | 1015.4 hPa | 0 mm | - | 281 W/m² | - |
| 1777984405 | 21.11° C | 58% | 1015.5 hPa | 0 mm | - | 219 W/m² | - |
| 1777984101 | 20.56° C | 59% | 1015.4 hPa | 0 mm | - | 250 W/m² | - |
| 1777983799 | 20.56° C | 60% | 1015.3 hPa | 0 mm | - | 268 W/m² | - |
| 1777983495 | 20° C | 62% | 1015.2 hPa | 0 mm | - | 246 W/m² | - |
| 1777983192 | 20° C | 61% | 1015.4 hPa | 0 mm | - | 245 W/m² | - |
| 1777982888 | 19.44° C | 63% | 1015.3 hPa | 0 mm | - | 215 W/m² | - |
| 1777982584 | 19.44° C | 64% | 1015.2 hPa | 0 mm | - | 171 W/m² | - |
| 1777982283 | 19.44° C | 65% | 1015.3 hPa | 0 mm | - | 218 W/m² | - |
* Rain latest hour (hover to see other rain measurements)
** Current wind speed in m/s (hover to see current wind gust speed)